Japanese version Home page |
Updated on March 17, 2010 |
|
Orbital ElementsEpoch = 2010 Jan. 4.0 TT T = 2009 Dec. 15.43207 TT Peri. = 180.75749 e = 0.5026812 Node = 150.11807 2000.0 q = 1.5486245 AU Incl. = 8.13271 a = 3.1139471 AU n = 0.17936480 P = 5.495 years
|
Magnitudes Graphm1 = 14.0 + 5 log d + 15.0 log r
|
The orbital elements are printed on CBET 1790.
|